• In Portugal
  • List of Countries
  • For 7 days
  • Water Temperature
  • Satellite Maps
  • Weather Map
  • Weather Widgets
  • user-avatar
    Login

    Hourly Weather Fedoseevskiy

    Today, 21 May, Monday

    Time Temperature Precipitation Wind Pressure Humidity
    00:00 +9°C° 0 mm 5 mps 748 mmHg 92%
    01:00 +9°C° 0 mm 5 mps 749 mmHg 92%
    02:00 +10°C° 0 mm 4 mps 749 mmHg 91%
    03:00 +10°C° 0 mm 4 mps 749 mmHg 90%
    04:00 +9°C° 0 mm 5 mps 749 mmHg 88%
    05:00 +9°C° 0 mm 5 mps 750 mmHg 87%
    06:00 +10°C° 0 mm 6 mps 750 mmHg 83%
    07:00 +11°C° 0 mm 6 mps 750 mmHg 79%
    08:00 +12°C° 0 mm 7 mps 750 mmHg 75%
    09:00 +12°C° 0.2 mm 7 mps 750 mmHg 74%
    10:00 +14°C° 0.2 mm 7 mps 750 mmHg 73%
    11:00 +14°C° 0.2 mm 7 mps 751 mmHg 72%
    12:00 +14°C° 0.5 mm 6 mps 751 mmHg 75%
    13:00 +14°C° 0.5 mm 5 mps 751 mmHg 78%
    14:00 +17°C° 0 mm 4 mps 751 mmHg 71%
    15:00 +17°C° 0.1 mm 4 mps 751 mmHg 72%
    16:00 +17°C° 0.1 mm 4 mps 751 mmHg 74%
    17:00 +17°C° 0.1 mm 4 mps 751 mmHg 76%
    18:00 +15°C° 0.1 mm 4 mps 751 mmHg 78%
    19:00 +14°C° 0.1 mm 4 mps 751 mmHg 79%
    20:00 +13°C° 0.1 mm 4 mps 751 mmHg 81%
    21:00 +13°C° 0.1 mm 4 mps 751 mmHg 82%
    22:00 +13°C° 0.1 mm 4 mps 751 mmHg 83%
    23:00 +12°C° 0.1 mm 4 mps 751 mmHg 84%

    Tomorrow, 22 May, Tuesday

    Time Temperature Precipitation Wind Pressure Humidity
    00:00 +12°C° 0.1 mm 4 mps 751 mmHg 85%
    01:00 +12°C° 0.1 mm 4 mps 751 mmHg 87%
    02:00 +11°C° 0.1 mm 4 mps 751 mmHg 88%
    03:00 +11°C° 0.4 mm 4 mps 751 mmHg 89%
    04:00 +11°C° 0.4 mm 4 mps 751 mmHg 90%
    05:00 +11°C° 0.4 mm 4 mps 751 mmHg 91%
    06:00 +11°C° 0.3 mm 4 mps 751 mmHg 91%
    07:00 +12°C° 0.3 mm 4 mps 751 mmHg 91%
    08:00 +12°C° 0.3 mm 4 mps 751 mmHg 91%
    09:00 +12°C° 0.1 mm 4 mps 751 mmHg 92%
    10:00 +13°C° 0.1 mm 4 mps 751 mmHg 92%
    11:00 +13°C° 0.1 mm 4 mps 751 mmHg 92%
    12:00 +15°C° 0 mm 4 mps 751 mmHg 90%
    13:00 +17°C° 0 mm 4 mps 751 mmHg 87%
    14:00 +19°C° 0 mm 4 mps 751 mmHg 84%
    15:00 +19°C° 0.2 mm 3 mps 751 mmHg 83%
    16:00 +19°C° 0.2 mm 3 mps 751 mmHg 83%
    17:00 +20°C° 0.2 mm 3 mps 751 mmHg 82%
    18:00 +19°C° 0.1 mm 2 mps 751 mmHg 86%
    19:00 +17°C° 0.1 mm 2 mps 751 mmHg 90%
    20:00 +16°C° 0.1 mm 2 mps 751 mmHg 93%
    21:00 +15°C° 0 mm 2 mps 751 mmHg 94%
    22:00 +15°C° 0 mm 2 mps 751 mmHg 95%
    23:00 +14°C° 0 mm 2 mps 751 mmHg 96%

    Day after tomorrow, 23 May, Wednesday

    Time Temperature Precipitation Wind Pressure Humidity
    00:00 +14°C° 0 mm 1 mps 751 mmHg 96%
    01:00 +14°C° 0 mm 1 mps 751 mmHg 96%
    02:00 +13°C° 0 mm 1 mps 751 mmHg 96%
    03:00 +14°C° 0 mm 1 mps 751 mmHg 96%
    04:00 +14°C° 0 mm 1 mps 751 mmHg 96%
    05:00 +13°C° 0 mm 0 mps 752 mmHg 96%
    06:00 +15°C° 0 mm 0 mps 752 mmHg 90%
    07:00 +19°C° 0 mm 1 mps 752 mmHg 85%
    08:00 +20°C° 0 mm 1 mps 752 mmHg 79%
    09:00 +22°C° 0 mm 1 mps 751 mmHg 73%
    10:00 +23°C° 0 mm 1 mps 751 mmHg 66%
    11:00 +24°C° 0 mm 1 mps 751 mmHg 59%
    12:00 +24°C° 0 mm 1 mps 751 mmHg 56%
    13:00 +25°C° 0 mm 1 mps 750 mmHg 54%
    14:00 +25°C° 0 mm 1 mps 750 mmHg 51%
    15:00 +25°C° 0 mm 1 mps 750 mmHg 53%
    16:00 +25°C° 0 mm 1 mps 749 mmHg 55%
    17:00 +25°C° 0 mm 1 mps 749 mmHg 58%
    18:00 +23°C° 0 mm 1 mps 749 mmHg 63%
    19:00 +21°C° 0 mm 1 mps 749 mmHg 69%
    20:00 +18°C° 0 mm 1 mps 749 mmHg 75%
    21:00 +18°C° 0 mm 1 mps 749 mmHg 77%
    22:00 +16°C° 0 mm 1 mps 749 mmHg 79%
    23:00 +16°C° 0 mm 1 mps 749 mmHg 80%

    24 May, Thursday

    Time Temperature Precipitation Wind Pressure Humidity
    00:00 +15°C° 0 mm 1 mps 749 mmHg 83%
    01:00 +15°C° 0 mm 1 mps 748 mmHg 85%
    02:00 +14°C° 0 mm 1 mps 748 mmHg 88%
    03:00 +15°C° 0 mm 1 mps 748 mmHg 88%
    04:00 +15°C° 0 mm 1 mps 748 mmHg 88%
    05:00 +15°C° 0 mm 1 mps 748 mmHg 88%
    06:00 +17°C° 0 mm 2 mps 748 mmHg 83%
    07:00 +19°C° 0 mm 2 mps 748 mmHg 79%
    08:00 +20°C° 0 mm 2 mps 748 mmHg 74%
    09:00 +21°C° 0 mm 3 mps 748 mmHg 69%
    10:00 +22°C° 0 mm 3 mps 748 mmHg 65%
    11:00 +24°C° 0 mm 3 mps 747 mmHg 61%
    12:00 +23°C° 0 mm 4 mps 747 mmHg 59%
    13:00 +25°C° 0 mm 4 mps 747 mmHg 58%
    14:00 +25°C° 0 mm 4 mps 747 mmHg 57%
    15:00 +23°C° 0 mm 4 mps 747 mmHg 60%
    16:00 +23°C° 0 mm 4 mps 747 mmHg 64%
    17:00 +22°C° 0 mm 4 mps 747 mmHg 67%
    18:00 +21°C° 0 mm 4 mps 747 mmHg 71%
    19:00 +19°C° 0 mm 4 mps 747 mmHg 75%
    20:00 +17°C° 0 mm 4 mps 747 mmHg 79%
    21:00 +15°C° 0 mm 5 mps 748 mmHg 81%
    22:00 +15°C° 0 mm 5 mps 748 mmHg 84%
    23:00 +14°C° 0 mm 6 mps 749 mmHg 87%

    25 May, Friday

    Time Temperature Precipitation Wind Pressure Humidity
    00:00 +14°C° 0 mm 6 mps 749 mmHg 85%
    01:00 +13°C° 0 mm 6 mps 749 mmHg 83%
    02:00 +13°C° 0 mm 6 mps 749 mmHg 81%
    03:00 +11°C° 0 mm 6 mps 750 mmHg 80%
    04:00 +11°C° 0 mm 6 mps 750 mmHg 80%
    05:00 +10°C° 0 mm 6 mps 751 mmHg 79%
    06:00 +11°C° 0 mm 7 mps 751 mmHg 73%
    07:00 +11°C° 0 mm 7 mps 752 mmHg 68%
    08:00 +12°C° 0 mm 7 mps 752 mmHg 62%
    09:00 +14°C° 0 mm 7 mps 752 mmHg 59%
    10:00 +14°C° 0 mm 7 mps 752 mmHg 56%
    11:00 +15°C° 0 mm 7 mps 753 mmHg 53%
    12:00 +15°C° 0 mm 7 mps 753 mmHg 53%
    13:00 +15°C° 0 mm 7 mps 753 mmHg 52%
    14:00 +16°C° 0 mm 7 mps 753 mmHg 52%
    15:00 +15°C° 0 mm 7 mps 753 mmHg 55%
    16:00 +15°C° 0 mm 6 mps 754 mmHg 57%
    17:00 +14°C° 0 mm 6 mps 754 mmHg 59%
    18:00 +13°C° 0 mm 5 mps 754 mmHg 62%
    19:00 +10°C° 0 mm 5 mps 755 mmHg 65%
    20:00 +10°C° 0 mm 4 mps 755 mmHg 68%
    21:00 +8°C° 0 mm 4 mps 756 mmHg 69%
    22:00 +8°C° 0 mm 4 mps 756 mmHg 70%
    23:00 +8°C° 0 mm 3 mps 757 mmHg 70%

    26 May, Saturday

    Time Temperature Precipitation Wind Pressure Humidity
    00:00 +7°C° 0 mm 3 mps 757 mmHg 71%
    01:00 +7°C° 0 mm 3 mps 757 mmHg 73%
    02:00 +5°C° 0 mm 3 mps 758 mmHg 74%
    03:00 +5°C° 0 mm 3 mps 758 mmHg 74%
    04:00 +7°C° 0 mm 2 mps 758 mmHg 75%
    05:00 +7°C° 0 mm 2 mps 759 mmHg 76%
    06:00 +9°C° 0 mm 3 mps 759 mmHg 69%
    07:00 +11°C° 0 mm 3 mps 759 mmHg 63%
    08:00 +13°C° 0 mm 3 mps 760 mmHg 57%
    09:00 +14°C° 0 mm 3 mps 760 mmHg 55%
    10:00 +16°C° 0 mm 3 mps 759 mmHg 52%
    11:00 +18°C° 0 mm 3 mps 759 mmHg 50%
    12:00 +18°C° 0 mm 3 mps 759 mmHg 51%
    13:00 +19°C° 0 mm 3 mps 759 mmHg 51%
    14:00 +19°C° 0 mm 3 mps 759 mmHg 51%
    15:00 +19°C° 0 mm 3 mps 758 mmHg 54%
    16:00 +19°C° 0 mm 2 mps 758 mmHg 56%
    17:00 +19°C° 0 mm 2 mps 758 mmHg 58%
    18:00 +17°C° 0 mm 2 mps 758 mmHg 64%
    19:00 +16°C° 0 mm 1 mps 758 mmHg 70%
    20:00 +14°C° 0 mm 1 mps 758 mmHg 75%
    21:00 +13°C° 0 mm 1 mps 758 mmHg 77%
    22:00 +12°C° 0 mm 1 mps 758 mmHg 79%
    23:00 +12°C° 0 mm 1 mps 758 mmHg 81%
    Show more